SCP
1 1 2 4 4 3 3 2 1 0 0 0 0 0 0 0 0 1 1 1 2 2 2 1 1 1 1 1 0 0 1 1 1 1 1 1 1 1 1 0 0 0 0
1 1 2 3 4 3 3 2 1 0 0 0 0 0 0 0 0 1 1 1 2 2 2 1 1 1 1 1 1 1 1 1 1 1 1 1 1 1 0 0 0 0 0
1 1 1 3 3 3 2 1 1 1 0 0 0 0 0 0 0 0 1 1 1 1 1 1 1 1 1 1 1 1 1 1 1 1 1 1 1 1 0 0 0 0 0
1 0 1 2 3 3 2 1 1 1 0 0 0 0 0 0 0 0 1 1 1 1 1 1 1 1 1 1 1 1 1 1 1 1 1 1 1 1 0 0 0 0 0
0 0 0 1 2 2 1 1 1 1 0 0 0 0 0 0 0 0 0 0 0 1 1 0 0 1 1 1 1 1 1 1 1 1 1 1 1 1 1 0 0 0 0
0 0 0 1 1 1 1 1 1 1 0 0 0 0 0 0 0 0 0 0 0 0 0 0 0 0 0 0 0 0 1 1 0 1 1 1 1 1 1 1 0 0 0
0 0 0 0 1 1 1 1 1 1 0 0 0 0 0 0 0 0 0 0 0 0 0 0 0 0 0 0 0 0 0 1 1 1 1 1 1 1 1 0 0 0 0
0 0 0 0 0 1 1 1 1 1 0 0 0 0 0 0 0 0 0 0 0 0 0 0 0 0 0 0 0 0 0 1 1 1 1 1 1 1 1 0 0 0 0
0 0 0 0 0 0 1 1 1 1 0 0 0 0 0 0 0 0 0 0 0 0 0 0 0 0 0 0 0 0 0 1 1 1 1 1 1 1 0 0 0 0 0
0 0 0 0 0 0 1 1 1 1 0 0 0 0 0 0 0 0 0 0 0 0 0 0 0 0 0 0 0 0 0 0 1 1 1 1 1 0 0 0 0 0 0
0 0 0 0 0 0 0 1 1 1 0 0 0 0 0 0 0 0 0 0 0 0 0 0 0 0 0 0 0 0 0 0 0 1 1 1 0 0 0 0 0 0 0
0 0 0 0 0 0 0 0 1 1 0 0 0 0 0 0 0 0 0 0 0 0 0 0 0 0 0 0 0 0 0 0 0 0 0 0 0 0 0 0 0 0 0
0 0 0 0 0 0 0 0 0 0 0 0 0 0 0 0 0 0 0 0 0 0 0 0 0 0 0 0 0 0 0 0 0 0 0 0 0 0 0 0 0 0 0
0 0 0 0 0 0 0 0 0 0 0 0 0 0 0 0 0 0 0 0 0 0 0 0 0 0 0 0 0 0 0 0 0 0 0 0 0 0 0 0 0 0 0
0 0 0 0 0 0 0 0 0 0 0 0 0 0 0 0 0 0 0 0 0 0 0 0 0 0 0 0 0 0 0 0 0 0 0 0 0 0 0 0 0 0 0
0 0 0 0 0 0 0 0 0 0 0 0 0 0 0 0 0 0 0 0 0 0 0 0 0 0 0 0 0 0 0 0 0 0 0 0 0 0 0 0 0 0 0
0 0 0 0 0 0 0 0 0 0 0 0 0 0 0 0 0 0 0 0 0 0 0 0 0 0 0 0 0 0 0 0 0 0 0 0 0 0 0 0 0 0 0
0 0 0 0 0 0 0 0 0 0 0 0 0 0 0 0 0 0 0 0 0 0 0 0 0 0 0 0 0 0 0 0 0 0 0 0 0 0 0 0 0 0 0
0 0 0 0 0 0 0 0 0 0 0 0 0 0 0 0 0 0 0 0 0 0 0 0 0 0 0 0 0 0 0 0 0 0 0 0 0 0 0 0 0 0 0
0 0 0 0 0 0 0 0 0 0 0 0 0 0 0 0 0 0 0 0 0 0 0 0 0 0 0 0 0 0 0 0 0 0 0 0 0 0 0 0 0 0 0
0 0 0 0 0 0 0 0 0 0 0 0 0 0 0 0 0 0 0 0 0 0 0 0 0 0 0 0 0 0 0 0 0 0 0 0 0 0 0 0 0 0 0
0 0 0 0 0 0 0 0 0 0 0 0 0 0 0 0 0 0 0 0 0 0 0 0 0 0 0 0 0 0 0 0 0 0 0 0 0 0 0 0 0 0 0
0 0 0 0 0 0 0 0 0 0 0 0 0 0 0 0 0 0 0 0 0 0 0 0 0 0 0 0 0 0 0 0 0 0 0 0 0 0 0 0 0 0 0
0 0 0 0 0 0 0 0 0 0 0 0 0 0 0 0 0 0 0 0 0 0 0 0 0 0 0 0 0 0 0 0 0 0 0 0 0 0 0 0 0 0 0
0 0 0 0 0 1 0 0 0 0 0 0 0 0 0 0 0 0 0 0 0 0 0 0 0 0 0 0 0 0 0 0 0 0 0 0 0 0 0 0 0 0 0
0 0 0 0 0 1 0 0 0 0 0 0 0 0 0 0 0 0 0 0 0 0 0 0 0 0 0 0 0 0 0 0 0 0 0 0 0 0 0 0 0 0 0
Wind_Speed
2 1 2 2 2 2 2 2 2 2 2 1 1 2 2 1 1 0 1 2 1 2 2 2 2 2 2 2 2 3 3 4 4 4 5 5 5 6 7 8 8 9 9
3 2 2 2 2 2 2 2 3 2 2 1 1 2 2 1 1 1 0 1 2 2 3 3 3 3 3 3 3 3 4 4 5 5 5 6 6 7 8 8 9 9 10
3 3 2 2 3 3 3 2 2 2 1 1 1 1 1 1 1 1 1 0 1 2 3 3 4 4 4 4 3 4 4 5 5 6 6 7 7 8 8 8 9 10 10
2 3 2 3 3 3 3 3 2 2 1 1 1 1 1 1 1 1 1 1 0 1 2 3 4 5 4 4 5 5 5 6 6 7 7 7 7 8 8 9 9 10 11
2 2 2 2 3 3 3 3 2 2 2 1 1 1 1 1 2 1 2 1 1 1 1 2 3 5 5 5 6 7 7 7 7 7 7 7 8 8 9 9 10 11 12
1 1 1 2 3 3 2 3 3 2 2 2 1 0 1 2 1 2 2 1 1 1 1 1 1 3 4 5 7 8 8 8 9 8 7 7 8 9 9 10 11 11 12
1 1 1 1 3 3 4 4 3 3 1 2 1 0 1 1 2 1 1 1 1 0 0 1 1 1 2 5 7 8 9 10 10 8 8 8 9 9 10 11 11 11 12
1 1 1 1 2 2 3 4 3 2 1 2 2 1 1 2 1 1 1 1 1 0 0 1 1 1 1 1 4 8 10 10 10 9 8 8 9 10 10 10 11 11 12
1 1 2 2 2 3 3 4 4 4 3 1 1 2 2 2 1 1 0 0 1 1 1 1 1 1 1 2 2 6 9 9 10 10 9 9 9 10 10 11 11 12 13
2 1 1 2 2 2 3 4 4 4 4 3 1 1 1 2 2 1 1 0 0 1 1 1 1 2 2 2 3 5 7 8 9 9 9 9 9 10 10 11 11 12 13
1 1 1 1 2 2 3 3 3 4 3 3 3 2 1 1 1 2 2 1 2 1 1 1 1 2 2 2 2 4 7 8 9 9 9 9 9 10 10 10 11 12 13
1 1 1 1 1 2 2 3 3 4 3 3 2 2 2 2 2 2 2 2 2 2 1 1 1 1 2 2 3 6 7 8 9 9 8 8 9 9 10 11 11 12 13
1 1 0 1 1 1 2 2 2 3 3 4 3 2 2 2 2 2 1 1 2 2 1 1 1 1 2 2 3 7 7 8 8 9 8 8 8 9 10 10 12 12 13
1 1 0 0 1 1 1 1 2 2 2 3 3 3 2 2 2 2 2 2 1 2 1 2 2 1 1 2 4 6 5 8 8 8 9 8 8 8 9 10 11 12 13
0 1 1 0 0 1 1 2 2 2 2 1 2 3 2 2 1 1 2 2 2 2 3 2 2 2 2 2 4 3 4 8 9 8 9 9 8 8 9 10 10 11 12
0 1 1 1 0 0 0 2 2 2 2 1 1 2 2 2 1 1 1 1 1 2 2 2 2 2 3 3 5 4 4 9 9 9 9 9 9 8 9 10 10 11 12
0 1 1 1 1 1 1 2 2 2 3 1 1 2 1 1 2 1 1 1 1 1 2 2 2 2 2 3 4 4 4 4 4 8 9 9 9 9 9 10 10 10 11
1 1 1 1 1 1 1 2 3 3 3 2 1 2 1 1 1 1 1 1 1 1 2 2 2 2 3 3 4 4 4 4 4 7 9 9 9 10 9 9 10 10 11
1 2 1 1 1 1 1 1 2 3 2 2 2 2 1 2 1 0 1 1 1 0 1 1 2 2 2 2 4 4 4 3 4 6 8 9 9 10 9 9 10 10 11
2 2 1 1 1 1 1 2 2 3 2 2 1 2 1 1 1 1 1 1 1 1 0 1 2 1 2 2 2 3 4 4 4 4 6 7 9 10 10 10 11 11 12
2 2 1 2 2 1 1 2 3 3 3 3 2 2 1 1 1 0 1 1 1 1 1 1 1 1 2 2 3 3 4 4 4 2 4 4 5 4 5 8 9 11 12
2 2 1 2 2 1 2 3 3 3 3 3 2 2 2 2 2 3 2 1 1 1 1 1 1 2 2 2 3 3 3 4 4 3 4 5 3 4 4 4 9 11 12
2 2 2 2 2 2 3 4 4 3 3 3 2 2 1 2 2 2 3 3 3 3 2 1 1 2 2 3 3 3 2 3 3 3 3 4 3 4 4 6 11 11 11
1 1 1 1 1 2 3 4 5 4 3 3 2 1 1 1 1 1 2 2 2 2 3 2 1 2 2 2 2 2 2 3 3 2 2 3 4 4 6 5 9 11 11
1 1 1 2 1 1 3 4 4 3 3 2 1 1 1 1 2 3 2 2 2 2 4 4 4 3 4 5 3 2 2 3 3 2 2 2 3 4 5 4 5 10 11
1 1 1 1 1 1 2 3 4 2 3 2 1 1 1 2 2 3 2 1 1 2 2 3 4 5 4 5 5 2 1 2 2 2 2 3 3 4 4 4 4 5 6
Wind_Direction
167 176 171 163 162 159 154 143 136 131 127 117 122 149 149 155 172 246 309 324 299 268 258 266 266 268 273 285 300 313 318 315 316 318 318 321 325 324 323 321 322 321 320
173 170 182 173 174 167 163 157 154 148 151 145 168 176 172 177 188 202 244 317 316 296 277 271 278 279 283 287 290 302 310 307 306 309 310 314 318 318 317 318 320 320 319
180 173 190 184 181 167 158 148 138 127 132 133 201 189 179 188 202 206 201 221 303 311 292 278 281 283 288 286 290 297 305 303 301 303 304 308 310 311 313 316 319 317 315
200 174 185 196 185 167 163 160 161 147 141 151 214 207 206 200 213 212 206 203 218 289 299 291 289 288 291 297 295 295 299 302 302 300 301 305 306 307 311 316 316 316 315
216 193 188 194 178 166 169 171 164 156 159 174 212 200 215 213 217 206 209 215 210 210 249 292 299 302 300 304 302 300 299 298 301 297 297 301 304 305 307 311 313 312 313
206 204 185 189 175 169 170 171 167 160 162 168 182 218 249 234 221 212 220 219 200 205 227 254 294 303 309 310 306 304 301 299 301 296 296 300 301 303 307 309 311 311 313
195 191 177 185 182 181 181 177 164 157 150 129 111 314 304 245 217 217 215 215 220 270 282 243 226 245 297 312 305 306 301 299 301 298 296 298 300 303 306 306 309 312 313
198 196 171 185 188 182 175 171 156 159 158 150 152 151 300 314 298 238 202 202 220 231 305 291 241 248 269 283 305 310 303 298 299 297 300 302 303 307 309 310 312 313 314
216 202 193 200 185 177 185 182 174 168 173 187 174 167 167 223 286 297 237 216 198 197 251 290 282 265 276 275 280 303 307 299 298 298 302 304 307 309 310 312 312 314 315
218 215 192 202 187 175 181 190 182 175 170 185 198 210 174 162 180 284 314 335 271 230 248 272 292 289 283 281 292 306 316 312 297 299 303 305 308 310 313 313 313 315 317
220 222 199 209 191 179 180 190 187 176 180 188 184 180 153 124 168 181 259 301 326 287 263 260 267 293 291 290 286 305 317 315 308 300 301 306 309 313 314 315 316 317 318
256 250 201 190 196 190 185 195 196 188 188 189 185 183 171 168 183 175 210 264 286 292 298 276 273 291 303 307 306 322 319 316 314 311 307 310 313 315 317 317 318 318 319
286 273 234 197 206 205 202 193 182 182 184 187 186 192 190 194 180 169 188 246 286 298 296 291 279 288 323 321 319 334 321 318 318 319 319 313 316 318 318 318 318 319 320
287 303 340 191 205 195 192 182 168 171 172 182 190 190 183 195 183 175 174 184 280 292 286 285 300 285 314 318 327 338 321 322 319 321 323 315 318 320 321 320 320 320 320
327 356 8 9 123 186 191 181 160 159 144 153 192 190 181 184 176 175 180 190 197 252 277 277 286 301 316 317 326 328 313 321 325 324 323 322 321 322 322 319 320 321 321
333 53 19 34 58 79 163 161 137 139 127 141 167 166 169 169 153 160 177 192 208 207 253 270 277 304 310 324 331 326 314 328 325 324 324 324 326 321 321 321 321 321 322
4 59 59 91 96 91 98 131 131 134 132 131 138 123 134 153 156 175 166 159 182 184 243 292 302 316 314 318 328 323 313 312 311 323 325 327 327 324 324 324 322 322 324
13 39 84 98 98 101 109 129 134 128 140 145 131 115 111 110 160 176 153 145 160 172 200 273 309 313 301 306 318 317 320 322 313 320 327 329 330 330 327 327 327 327 329
27 30 64 90 90 104 104 119 128 125 131 134 135 138 154 119 104 174 150 154 153 124 180 236 295 298 308 323 327 318 317 316 321 324 329 332 330 329 328 330 330 333 332
45 30 41 74 84 91 112 119 119 121 119 114 125 141 146 147 174 157 106 138 141 131 166 236 286 310 321 327 324 327 332 332 327 329 336 333 333 333 330 334 336 337 336
45 33 57 68 75 91 121 123 124 127 122 114 103 97 109 105 109 110 116 142 148 176 231 275 298 319 324 335 327 323 318 322 321 331 330 323 325 320 322 328 334 336 336
39 37 56 74 74 69 96 102 107 124 124 119 105 83 83 71 75 63 62 40 10 241 234 264 291 295 298 303 304 310 320 333 323 337 335 318 322 314 316 315 329 337 341
38 37 44 57 66 78 79 83 93 105 111 110 109 101 68 61 45 65 54 31 8 352 328 251 271 274 277 283 295 306 316 314 295 311 328 308 318 312 314 320 332 340 345
44 45 55 58 58 70 80 82 89 89 95 96 100 108 103 76 60 65 60 34 15 4 351 343 269 273 282 290 290 297 300 309 296 309 331 301 314 311 316 316 334 345 349
40 39 52 59 60 67 90 92 88 101 98 91 86 90 103 121 88 56 53 44 26 8 16 19 10 6 0 1 4 12 351 343 327 327 354 320 310 314 312 314 332 345 347
54 38 39 44 61 87 102 102 93 112 112 102 85 82 76 66 63 57 67 70 28 356 11 10 12 11 9 10 13 10 332 335 328 318 339 335 319 334 323 313 322 332 339